Location: Praha
(50.0830°N, 14.4670°E)
Time: 10:32:55
(UTC+02:00)

ISS - Pass Details

Date: 17 May 2019
Orbit: 407 x 410 km, 51.6° (Epoch: 21 May)

Event Time Altitude Azimuth Distance (km) Brightness Sun altitude
Rises 23:42:47 0° 246° (WSW) 2,328 0.0 -18.5°
Reaches altitude 10° 23:44:51 10° 245° (WSW) 1,469 -1.1 -18.6°
Enters shadow 23:45:13 13° 244° (WSW) 1,323 -1.3 -18.6°
Exits shadow 23:48:43 56° 94° (E) 495 -3.6 -18.8°
Drops below altitude 10° 23:51:27 10° 75° (ENE) 1,476 -1.0 -18.9°
Sets 23:53:32 0° 74° (ENE) 2,339 0.0 -19.0°
